Regional Weather Roundup
Issued by NWS Sioux Falls, SD

Home | Current Version | Previous Version | Text Only | Print | Product List | Glossary On
Versions: 1 2 3 4 5 6 7 8 9 10 11 12 13 14 15 16 17 18 19 20 21 22 23 24 25 26 27 28 29 30 31 32 33 34 35 36 37 38 39 40 41 42 43 44 45 46 47 48 49 50
000
ASUS43 KFSD 170702
RWRFSD

WEATHER ROUNDUP FOR SE SOUTH DAKOTA/SW MINNESOTA/NW IOWA
NATIONAL WEATHER SERVICE SIOUX FALLS SD
100 AM CST FRI NOV 17 2017

NOTE: "FAIR" INDICATES FEW OR NO CLOUDS BELOW 12,000 FEET WITH NO
SIGNIFICANT WEATHER AND OR OBSTRUCTIONS TO VISIBILITY.


SDZ038>040-050-052>070-170800-
SOUTHEAST SOUTH DAKOTA

CITY           SKY/WX    TMP DP  RH WIND       PRES   REMARKS
BROOKINGS      CLOUDY    37  27  67 S24G32    29.61F
CHAMBERLAIN    CLOUDY    53  37  56 S13       29.50F
HURON          CLOUDY    43  31  62 S20G29    29.53F
MADISON        FAIR      39  32  75 S22G31    29.62F
MITCHELL       CLOUDY    43  31  62 S18       29.57F
SIOUX FALLS    CLOUDY    41  29  62 S15G23    29.68F
WINNER         FAIR      52  36  54 SW18G29   29.52S
YANKTON        CLOUDY    40  30  67 SE13      29.65F
$$

MNZ071-072-080-081-089-090-097-098-170800-
SOUTHWEST MINNESOTA

CITY           SKY/WX    TMP DP  RH WIND       PRES   REMARKS
FAIRMONT       CLOUDY    33  28  81 S22G28    29.84F WCI  21
JACKSON        CLOUDY    34  28  80 S22G29    29.81F WCI  22
LUVERNE        CLOUDY    36  28  75 S14G21    29.73F
MARSHALL       CLOUDY    37  28  70 S26       29.67F
MONTEVIDEO     CLOUDY    34  28  80 S16G25    29.68F WCI  23
PIPESTONE      CLOUDY    36  27  69 S22G28    29.66F
REDWOOD FALLS  CLOUDY    35  27  72 SE25G33   29.77F WCI  23
WINDOM           N/A     36  21  55 SE18G29   29.77F
WORTHINGTON    CLOUDY    33  27  78 S23G29    29.74F WCI  21
$$

IAZ001>003-012>014-020>022-031-032-NEZ013-014-SDZ071-170800-
NORTHWEST IOWA

CITY           SKY/WX    TMP DP  RH WIND       PRES   REMARKS
CHEROKEE       CLOUDY    38  30  72 S12       29.79F
DENISON        CLOUDY    41  30  65 S23G29    29.81F
ESTHERVILLE    CLOUDY    33  29  85 S22       29.83F WCI  21
LE MARS        CLOUDY    43  30  61 S17       29.75F
ORANGE CITY    CLOUDY    39  30  70 S13       29.74F
SHELDON        CLOUDY    39  28  65 SE16G23   29.74F
SIOUX CITY     MOCLDY    38  29  70 SE12G20   29.75F
SPENCER        CLOUDY    35  28  75 SE14      29.82F WCI  26
STORM LAKE     CLOUDY    36  30  80 S21G26    29.79F
$$

ABBREVIATIONS USED IN REMARKS
   TC - TEMPERATURE IN CELSIUS
  WCI - WIND CHILL INDEX
   HX - HEAT INDEX
  VSB - VISIBILITY





USA.gov is the U.S. government's official web portal to all federal, state and local government web resources and services.